Regional Weather Roundup
Issued by NWS

Home | Current Version | Previous Version | Graphics & Text | Print | Product List | Glossary On
Versions: 1 2 3 4 5 6 7 8 9 10 11 12 13 14 15 16 17 18 19 20 21 22 23 24 25 26 27 28 29 30 31 32 33 34 35 36 37 38 39 40 41 42 43 44 45 46 47 48 49 50
000
ASUS43 KIND 221900
RWRIN

WEATHER ROUNDUP FOR INDIANA
NATIONAL WEATHER SERVICE INDIANAPOLIS IN
300 PM EDT TUE MAY 22 2018

NOTE: "FAIR" INDICATES FEW OR NO CLOUDS BELOW 12,000 FEET WITH NO
SIGNIFICANT WEATHER AND/OR OBSTRUCTIONS TO VISIBILITY.

* - STATION DOES NOT REPORT WEATHER SUCH AS PRECIPITATION OR FOG.

+ - STATION NOT QUALITY CONTROLLED BY THE NATIONAL WEATHER SERVICE.
    USE DATA WITH CAUTION...ESPECIALLY DEWPOINT AND RELATIVE
    HUMIDITY OBSERVATIONS.

INZ001>003-010>013-019-020-222000-
NORTHWEST INDIANA

CITY           SKY/WX    TMP DP  RH WIND       PRES   REMARKS
GARY /AIRPORT/ CLOUDY    55  52  88 NE7       30.10R FOG

$$

LMZ046-743>745-222000-
SOUTHERN LAKE MICHIGAN

STATION/POSITION TIME  TEMP    WIND        PRES    WAVE
                       AIR SEA DIR/SP/G            HT
                 (UTC) (F)     (DEG/KT/KT) (MB)    (FT)
BURNS HARBOR     1840   50        CALM     1019.3S
MICHIGAN CITY    1830   47     360/  5/  6   N/A
5NW MICH CITY    1850   46 53   30/  6/  6   N/A     1

$$

INZ004-005-014>016-021>024-222000-
NORTH CENTRAL INDIANA

CITY           SKY/WX    TMP DP  RH WIND       PRES   REMARKS
ELKHART        PTSUNNY   68  59  73 NW12      30.04S
GOSHEN         CLOUDY    69  61  75 NW16      30.02S
SOUTH BEND     CLOUDY    60  55  83 NW14      30.07S

$$

INZ006>009-017-018-025>027-222000-
NORTHEAST INDIANA

CITY           SKY/WX    TMP DP  RH WIND       PRES   REMARKS
FORT WAYNE     FAIR      79  63  57 W20G28    30.00S

$$

INZ028-029-035-036-043>045-051>053-222000-
WEST CENTRAL INDIANA

CITY           SKY/WX    TMP DP  RH WIND       PRES   REMARKS
LAFAYETTE      PTSUNNY   79  61  53 N7        30.01F
TERRE HAUTE    FAIR      84  63  49 W9        30.01F

$$

INZ030>032-037>040-046>048-054>057-064-065-222000-
CENTRAL INDIANA

CITY           SKY/WX    TMP DP  RH WIND       PRES   REMARKS
COLUMBUS       PTSUNNY   82  64  54 SW7       29.99F
INDIANAPOLIS   PTSUNNY   79  66  64 SW8       29.99F
-EAGLE CREEK   FAIR      83  66  56 NW10G20   29.99F
KOKOMO +       FAIR      78  62  57 NW15G24   30.02F
MT COMFORT *+  FAIR      79  73  83 W12       30.00F
SHELBYVILLE    PTSUNNY   84  66  54 W13G22    29.99F

$$

INZ033-034-041-042-049-050-058-059-222000-
EAST CENTRAL INDIANA

CITY           SKY/WX    TMP DP  RH WIND       PRES   REMARKS
MUNCIE         FAIR      82  64  54 W12       29.99F

$$

INZ060-061-067>069-081>083-085>088-222000-
SOUTHWEST INDIANA

CITY           SKY/WX    TMP DP  RH WIND       PRES   REMARKS
EVANSVILLE     PTSUNNY   83  68  60 W3        30.01F
HUNTINGBURG +  CLOUDY    81  72  74 S7        30.02F

$$

INZ062-063-066-070>080-084-089>092-222000-
SOUTH CENTRAL AND SOUTHEAST INDIANA

CITY           SKY/WX    TMP DP  RH WIND       PRES   REMARKS
BLOOMINGTON    PTSUNNY   79  68  69 N6        30.01F
SEYMOUR +      FAIR      84  66  54 SW9       29.99F

$$





USA.gov is the U.S. government's official web portal to all federal, state and local government web resources and services.